Portada
METAR-TAF:

METAR-TAF

Aeroports :

Esmeraldas, Equador

latitud: 00-58-43N, longitud: 079-37-36W, altitud: 10 m

Observació

L'informe es va fer fa 5 hores i 49 minuts, a les 22:00 UTC
Vent 8 kt del Sud-Oest
Temperatura 26°C
Humitat 89%
Pressió 1009 hPa
Visibilitat 10 km o més
Núvols disperses a una alçada de 2000 ft
Cel cobert a una alçada de 7000 ft

METAR: SETN 172200Z 22008KT 9999 SCT020 OVC070 26/24 Q1009 RMK A2980

Hora: 22:49 (03:49 UTC)


TAF: manca

Observacions i pronòstics meteorològics de més de 4000 aeroports (METAR i TAF).

Les estacions disponibles són els punts grocs i vermells al mapa.

Posi el ratolí al punt desitjat per veure el nom de l'estació.

Feu clic per veure les observacions i els pronòstics meteorològics.

Per canviar el mapa: feu clic els botons verds amb una creu de color negre per apropar; al botó verd amb un guió per allunyar la imatge; o en les fletxes verdes per a mapes adjacents.


METAR-TAF: